Time,TemperatureF,DewpointF,PressureIn,WindDirection,WindDirectionDegrees,WindSpeedMPH,WindSpeedGustMPH,Humidity,HourlyPrecipIn,Conditions,Clouds,dailyrainin,SoftwareType,DateUTC
2013-04-19 04:08:00,49.7,47.8,29.84,N/A,-737280,0.0,-999.0,93,0.00,,,0.37,Wunderground v.1.15,2013-04-19 09:08:00,
2013-04-19 04:13:00,49.7,47.8,29.84,N/A,-737280,0.0,-999.0,93,0.00,,,0.37,Wunderground v.1.15,2013-04-19 09:13:00,
2013-04-19 04:18:00,48.4,46.2,29.86,NNE,23,2.0,-999.0,92,0.00,,,0.37,Wunderground v.1.15,2013-04-19 09:18:00,
2013-04-19 04:23:00,48.4,46.2,29.86,NNE,23,2.0,-999.0,92,0.00,,,0.37,Wunderground v.1.15,2013-04-19 09:23:00,
2013-04-19 04:28:00,48.4,46.2,29.86,NNE,23,2.0,-999.0,92,0.00,,,0.37,Wunderground v.1.15,2013-04-19 09:28:00,
2013-04-19 11:08:00,48.8,41.9,30.02,NE,48,1.0,1.0,77,0.00,,,0.37,Wunderground v.1.15,2013-04-19 16:08:00,
2013-04-19 11:10:00,48.7,41.8,30.02,NE,38,1.0,3.0,77,0.00,,,0.37,Wunderground v.1.15,2013-04-19 16:10:00,
2013-04-19 11:15:00,48.7,42.1,30.02,NW,307,1.0,3.0,78,0.00,,,0.37,Wunderground v.1.15,2013-04-19 16:15:00,
2013-04-19 11:20:00,48.8,41.9,30.02,SW,222,1.0,1.0,77,0.00,,,0.37,Wunderground v.1.15,2013-04-19 16:20:00,
2013-04-19 11:25:00,49.0,42.1,30.02,WNW,291,1.0,2.0,77,0.00,,,0.37,Wunderground v.1.15,2013-04-19 16:25:00,
2013-04-19 11:30:00,49.1,41.9,30.02,SW,227,1.0,3.0,76,0.00,,,0.37,Wunderground v.1.15,2013-04-19 16:30:00,
2013-04-19 11:35:00,49.3,42.1,30.02,SW,236,1.0,5.0,76,0.00,,,0.37,Wunderground v.1.15,2013-04-19 16:35:00,
2013-04-19 11:40:00,49.5,41.6,30.04,WNW,298,1.0,5.0,74,0.00,,,0.37,Wunderground v.1.15,2013-04-19 16:40:00,
2013-04-19 11:45:00,49.6,41.3,30.04,WNW,302,1.0,5.0,73,0.00,,,0.37,Wunderground v.1.15,2013-04-19 16:45:00,
2013-04-19 11:50:00,49.5,41.2,30.04,NNW,328,1.0,1.0,73,0.00,,,0.37,Wunderground v.1.15,2013-04-19 16:50:00,
2013-04-19 11:55:00,49.5,41.6,30.04,SW,232,1.0,5.0,74,0.00,,,0.37,Wunderground v.1.15,2013-04-19 16:55:00,
2013-04-19 12:00:00,49.5,41.6,30.04,WNW,303,1.0,5.0,74,0.00,,,0.37,Wunderground v.1.15,2013-04-19 17:00:00,
2013-04-19 12:05:00,49.3,41.0,30.04,West,281,1.0,5.0,73,0.00,,,0.37,Wunderground v.1.15,2013-04-19 17:05:00,
2013-04-19 12:10:00,49.1,40.8,30.03,North,360,2.0,2.0,73,0.00,,,0.37,Wunderground v.1.15,2013-04-19 17:10:00,
2013-04-19 12:15:00,48.8,40.5,30.03,NNW,335,2.0,5.0,73,0.00,,,0.37,Wunderground v.1.15,2013-04-19 17:15:00,
2013-04-19 12:20:00,48.9,41.3,30.03,WNW,291,2.0,2.0,75,0.00,,,0.37,Wunderground v.1.15,2013-04-19 17:20:00,
2013-04-19 12:25:00,48.8,40.5,30.03,NNW,340,1.0,5.0,73,0.00,,,0.37,Wunderground v.1.15,2013-04-19 17:25:00,
2013-04-19 12:30:00,48.7,40.4,30.03,WNW,302,2.0,2.0,73,0.00,,,0.37,Wunderground v.1.15,2013-04-19 17:30:00,
2013-04-19 12:35:00,48.7,40.1,30.03,North,350,2.0,5.0,72,0.00,,,0.37,Wunderground v.1.15,2013-04-19 17:35:00,
2013-04-19 12:40:00,48.7,40.1,30.01,NNW,346,2.0,5.0,72,0.00,,,0.37,Wunderground v.1.15,2013-04-19 17:40:00,
2013-04-19 12:45:00,48.7,40.8,30.01,North,355,2.0,5.0,74,0.00,,,0.37,Wunderground v.1.15,2013-04-19 17:45:00,
2013-04-19 12:50:00,48.8,40.5,30.01,SSW,210,2.0,5.0,73,0.00,,,0.37,Wunderground v.1.15,2013-04-19 17:50:00,
2013-04-19 12:55:00,49.0,40.4,30.01,North,5,3.0,5.0,72,0.00,,,0.37,Wunderground v.1.15,2013-04-19 17:55:00,
2013-04-19 13:00:00,49.1,40.8,30.01,NNW,342,2.0,5.0,73,0.00,,,0.37,Wunderground v.1.15,2013-04-19 18:00:00,
2013-04-19 13:05:00,49.3,41.4,30.01,NNW,341,2.0,5.0,74,0.00,,,0.37,Wunderground v.1.15,2013-04-19 18:05:00,
2013-04-19 13:10:00,49.4,41.1,30.00,ENE,65,1.0,5.0,73,0.00,,,0.37,Wunderground v.1.15,2013-04-19 18:10:00,
2013-04-19 13:15:00,49.5,41.2,30.00,North,5,1.0,5.0,73,0.00,,,0.37,Wunderground v.1.15,2013-04-19 18:15:00,
2013-04-19 13:20:00,49.6,41.3,30.00,NNE,25,1.0,1.0,73,0.00,,,0.37,Wunderground v.1.15,2013-04-19 18:20:00,
2013-04-19 13:25:00,49.8,41.5,30.00,NNE,26,1.0,2.0,73,0.00,,,0.37,Wunderground v.1.15,2013-04-19 18:25:00,
2013-04-19 13:30:00,50.1,41.8,30.00,NNE,14,1.0,1.0,73,0.00,,,0.37,Wunderground v.1.15,2013-04-19 18:30:00,
2013-04-19 13:35:00,50.5,42.2,30.00,NNE,18,1.0,3.0,73,0.00,,,0.37,Wunderground v.1.15,2013-04-19 18:35:00,
2013-04-19 13:40:00,50.7,41.3,30.00,NE,35,1.0,1.0,70,0.00,,,0.37,Wunderground v.1.15,2013-04-19 18:40:00,
2013-04-19 13:45:00,51.0,41.9,30.00,NNW,342,1.0,5.0,71,0.00,,,0.37,Wunderground v.1.15,2013-04-19 18:45:00,
2013-04-19 13:50:00,51.5,41.3,30.00,North,355,1.0,5.0,68,0.00,,,0.37,Wunderground v.1.15,2013-04-19 18:50:00,
2013-04-19 13:55:00,52.1,41.9,29.98,NW,319,1.0,5.0,68,0.00,,,0.37,Wunderground v.1.15,2013-04-19 18:55:00,
2013-04-19 14:00:00,53.0,41.9,29.98,NNE,33,2.0,2.0,66,0.00,,,0.37,Wunderground v.1.15,2013-04-19 19:00:00,
2013-04-19 14:05:00,53.5,42.4,29.98,North,360,2.0,5.0,66,0.00,,,0.37,Wunderground v.1.15,2013-04-19 19:05:00,
2013-04-19 14:10:00,54.1,43.4,29.98,NNE,32,2.0,5.0,67,0.00,,,0.37,Wunderground v.1.15,2013-04-19 19:10:00,
2013-04-19 14:15:00,54.6,42.3,29.98,NNE,19,1.0,5.0,63,0.00,,,0.37,Wunderground v.1.15,2013-04-19 19:15:00,
2013-04-19 14:20:00,54.9,41.7,29.98,ENE,72,3.0,3.0,61,0.00,,,0.37,Wunderground v.1.15,2013-04-19 19:20:00,
2013-04-19 14:25:00,55.2,42.8,29.97,WSW,256,2.0,5.0,63,0.00,,,0.37,Wunderground v.1.15,2013-04-19 19:25:00,
2013-04-19 14:30:00,55.8,43.4,29.97,West,267,2.0,5.0,63,0.00,,,0.37,Wunderground v.1.15,2013-04-19 19:30:00,
2013-04-19 14:35:00,55.9,41.3,29.97,West,268,2.0,5.0,58,0.00,,,0.37,Wunderground v.1.15,2013-04-19 19:35:00,
2013-04-19 14:40:00,55.7,41.6,29.97,NNW,333,2.0,5.0,59,0.00,,,0.37,Wunderground v.1.15,2013-04-19 19:40:00,
2013-04-19 14:45:00,55.3,41.6,29.97,NE,44,3.0,5.0,60,0.00,,,0.37,Wunderground v.1.15,2013-04-19 19:45:00,
2013-04-19 14:50:00,55.4,41.7,29.97,NNW,342,2.0,5.0,60,0.00,,,0.37,Wunderground v.1.15,2013-04-19 19:50:00,
2013-04-19 14:55:00,55.4,41.3,29.97,NW,310,2.0,5.0,59,0.00,,,0.37,Wunderground v.1.15,2013-04-19 19:55:00,
2013-04-19 15:00:00,55.5,41.8,29.97,North,11,1.0,7.0,60,0.00,,,0.37,Wunderground v.1.15,2013-04-19 20:00:00,
2013-04-19 15:05:00,55.6,41.5,29.97,NW,311,1.0,7.0,59,0.00,,,0.37,Wunderground v.1.15,2013-04-19 20:05:00,
2013-04-19 15:10:00,55.5,41.8,29.98,North,11,2.0,2.0,60,0.00,,,0.37,Wunderground v.1.15,2013-04-19 20:10:00,
2013-04-19 15:15:00,55.5,42.7,29.98,NNE,13,1.0,2.0,62,0.00,,,0.37,Wunderground v.1.15,2013-04-19 20:15:00,
2013-04-19 15:20:00,55.7,43.3,29.98,North,11,0.0,3.0,63,0.00,,,0.37,Wunderground v.1.15,2013-04-19 20:20:00,
2013-04-19 15:25:00,55.9,42.2,29.98,North,355,1.0,3.0,60,0.00,,,0.37,Wunderground v.1.15,2013-04-19 20:25:00,
2013-04-19 15:30:00,56.2,42.1,29.98,NNE,31,2.0,4.0,59,0.00,,,0.37,Wunderground v.1.15,2013-04-19 20:30:00,
2013-04-19 15:35:00,56.6,42.4,29.98,NNW,341,1.0,9.0,59,0.00,,,0.37,Wunderground v.1.15,2013-04-19 20:35:00,
2013-04-19 15:40:00,57.5,41.4,29.98,North,360,2.0,9.0,55,0.00,,,0.37,Wunderground v.1.15,2013-04-19 20:40:00,
2013-04-19 15:45:00,58.0,41.4,29.98,NNE,31,3.0,9.0,54,0.00,,,0.37,Wunderground v.1.15,2013-04-19 20:45:00,
2013-04-19 15:50:00,58.4,42.8,29.98,West,277,3.0,3.0,56,0.00,,,0.37,Wunderground v.1.15,2013-04-19 20:50:00,
2013-04-19 15:55:00,59.2,43.0,29.97,NW,311,2.0,9.0,55,0.00,,,0.37,Wunderground v.1.15,2013-04-19 20:55:00,
2013-04-19 16:00:00,59.7,42.5,29.97,North,355,3.0,9.0,53,0.00,,,0.37,Wunderground v.1.15,2013-04-19 21:00:00,
2013-04-19 16:05:00,59.9,41.7,29.97,NE,39,3.0,9.0,51,0.00,,,0.37,Wunderground v.1.15,2013-04-19 21:05:00,
2013-04-19 16:10:00,60.1,41.9,29.95,NW,309,3.0,3.0,51,0.00,,,0.37,Wunderground v.1.15,2013-04-19 21:10:00,
2013-04-19 16:15:00,60.9,41.1,29.95,North,5,3.0,9.0,48,0.00,,,0.37,Wunderground v.1.15,2013-04-19 21:15:00,
2013-04-19 16:20:00,61.5,40.5,29.95,NNW,333,2.0,2.0,46,0.00,,,0.37,Wunderground v.1.15,2013-04-19 21:20:00,
2013-04-19 16:25:00,61.6,40.6,29.96,NNE,19,2.0,9.0,46,0.00,,,0.37,Wunderground v.1.15,2013-04-19 21:25:00,
2013-04-19 16:30:00,60.7,40.3,29.96,NNE,14,2.0,9.0,47,0.00,,,0.37,Wunderground v.1.15,2013-04-19 21:30:00,
2013-04-19 16:31:00,60.5,41.2,29.96,West,264,2.0,9.0,49,0.00,,,0.37,Wunderground v.1.15,2013-04-19 21:31:00,
2013-04-19 16:35:00,60.2,41.5,29.96,SE,130,2.0,9.0,50,0.00,,,0.37,Wunderground v.1.15,2013-04-19 21:35:00,
2013-04-19 16:40:00,60.7,40.9,29.95,NNE,28,2.0,9.0,48,0.00,,,0.37,Wunderground v.1.15,2013-04-19 21:40:00,
2013-04-19 16:45:00,60.5,42.3,29.95,North,360,2.0,9.0,51,0.00,,,0.37,Wunderground v.1.15,2013-04-19 21:45:00,
2013-04-19 16:50:00,60.6,41.8,29.95,WSW,248,3.0,9.0,50,0.00,,,0.37,Wunderground v.1.15,2013-04-19 21:50:00,
2013-04-19 16:55:00,60.3,40.5,29.95,NNE,26,3.0,9.0,48,0.00,,,0.37,Wunderground v.1.15,2013-04-19 21:55:00,
2013-04-19 17:00:00,60.0,40.8,29.95,North,355,3.0,9.0,49,0.00,,,0.37,Wunderground v.1.15,2013-04-19 22:00:00,
2013-04-19 17:05:00,59.8,41.6,29.95,NNE,23,3.0,9.0,51,0.00,,,0.37,Wunderground v.1.15,2013-04-19 22:05:00,
2013-04-19 17:10:00,59.6,41.4,29.94,NE,56,4.0,10.0,51,0.00,,,0.37,Wunderground v.1.15,2013-04-19 22:10:00,
2013-04-19 17:15:00,59.6,41.4,29.94,WSW,244,3.0,10.0,51,0.00,,,0.37,Wunderground v.1.15,2013-04-19 22:15:00,
2013-04-19 17:20:00,59.5,41.9,29.94,NE,34,2.0,2.0,52,0.00,,,0.37,Wunderground v.1.15,2013-04-19 22:20:00,
2013-04-19 17:25:00,59.3,41.2,29.95,WNW,301,2.0,3.0,51,0.00,,,0.37,Wunderground v.1.15,2013-04-19 22:25:00,
2013-04-19 17:35:00,58.7,41.6,29.95,NNE,17,3.0,9.0,53,0.00,,,0.37,Wunderground v.1.15,2013-04-19 22:35:00,
2013-04-19 17:40:00,58.5,40.9,29.96,NNE,17,3.0,9.0,52,0.00,,,0.37,Wunderground v.1.15,2013-04-19 22:40:00,
2013-04-19 17:45:00,58.3,40.7,29.96,NE,34,3.0,9.0,52,0.00,,,0.37,Wunderground v.1.15,2013-04-19 22:45:00,
2013-04-19 17:50:00,58.2,41.6,29.96,North,360,3.0,3.0,54,0.00,,,0.37,Wunderground v.1.15,2013-04-19 22:50:00,
2013-04-19 17:55:00,58.3,41.7,29.97,North,350,2.0,9.0,54,0.00,,,0.37,Wunderground v.1.15,2013-04-19 22:55:00,
2013-04-19 18:00:00,58.2,41.6,29.97,NW,311,2.0,2.0,54,0.00,,,0.37,Wunderground v.1.15,2013-04-19 23:00:00,
2013-04-19 18:05:00,58.1,41.5,29.97,West,264,2.0,5.0,54,0.00,,,0.37,Wunderground v.1.15,2013-04-19 23:05:00,
2013-04-19 18:10:00,57.7,40.7,29.97,NE,54,3.0,9.0,53,0.00,,,0.37,Wunderground v.1.15,2013-04-19 23:10:00,
2013-04-19 18:15:00,57.5,41.4,29.97,North,360,3.0,9.0,55,0.00,,,0.37,Wunderground v.1.15,2013-04-19 23:15:00,
2013-04-19 18:20:00,57.3,41.3,29.97,North,355,2.0,9.0,55,0.00,,,0.37,Wunderground v.1.15,2013-04-19 23:20:00,
2013-04-19 18:25:00,57.1,40.6,29.99,SW,229,2.0,9.0,54,0.00,,,0.37,Wunderground v.1.15,2013-04-19 23:25:00,
2013-04-19 18:30:00,56.9,40.9,29.99,North,9,2.0,9.0,55,0.00,,,0.37,Wunderground v.1.15,2013-04-19 23:30:00,
2013-04-19 18:35:00,56.8,41.3,29.99,North,5,1.0,9.0,56,0.00,,,0.37,Wunderground v.1.15,2013-04-19 23:35:00,
2013-04-19 18:40:00,56.7,41.2,30.00,North,355,1.0,9.0,56,0.00,,,0.37,Wunderground v.1.15,2013-04-19 23:40:00,
2013-04-19 18:45:00,56.5,41.9,30.00,North,355,0.0,9.0,58,0.00,,,0.37,Wunderground v.1.15,2013-04-19 23:45:00,
2013-04-19 18:50:00,56.1,40.6,30.00,North,360,1.0,1.0,56,0.00,,,0.37,Wunderground v.1.15,2013-04-19 23:50:00,
2013-04-19 18:55:00,55.8,40.8,30.00,North,360,1.0,9.0,57,0.00,,,0.37,Wunderground v.1.15,2013-04-19 23:55:00,
2013-04-19 19:00:00,55.5,41.4,30.00,North,360,0.0,9.0,59,0.00,,,0.37,Wunderground v.1.15,2013-04-20 00:00:00,
2013-04-19 19:05:00,55.1,41.5,30.00,North,360,0.0,9.0,60,0.00,,,0.37,Wunderground v.1.15,2013-04-20 00:05:00,
2013-04-19 19:10:00,54.8,41.6,30.00,North,360,0.0,9.0,61,0.00,,,0.37,Wunderground v.1.15,2013-04-20 00:10:00,
2013-04-19 19:15:00,54.6,41.4,30.00,North,360,0.0,9.0,61,0.00,,,0.37,Wunderground v.1.15,2013-04-20 00:15:00,
2013-04-19 19:20:00,54.3,42.4,30.00,North,360,0.0,9.0,64,0.00,,,0.37,Wunderground v.1.15,2013-04-20 00:20:00,
2013-04-19 19:25:00,54.0,42.9,30.01,North,360,0.0,9.0,66,0.00,,,0.37,Wunderground v.1.15,2013-04-20 00:25:00,
2013-04-19 19:30:00,53.5,43.6,30.01,North,360,0.0,9.0,69,0.00,,,0.37,Wunderground v.1.15,2013-04-20 00:30:00,
2013-04-19 19:35:00,52.8,44.0,30.01,North,360,0.0,9.0,72,0.00,,,0.37,Wunderground v.1.15,2013-04-20 00:35:00,
2013-04-19 19:40:00,52.0,44.3,30.01,North,360,0.0,9.0,75,0.00,,,0.37,Wunderground v.1.15,2013-04-20 00:40:00,
2013-04-19 19:45:00,51.2,43.9,30.01,North,360,0.0,9.0,76,0.00,,,0.37,Wunderground v.1.15,2013-04-20 00:45:00,
2013-04-19 19:50:00,50.5,43.6,30.01,North,360,0.0,9.0,77,0.00,,,0.37,Wunderground v.1.15,2013-04-20 00:50:00,
2013-04-19 19:55:00,49.9,43.6,30.02,North,360,0.0,9.0,79,0.00,,,0.37,Wunderground v.1.15,2013-04-20 00:55:00,
2013-04-19 20:00:00,49.2,43.3,30.02,North,360,0.0,9.0,80,0.00,,,0.37,Wunderground v.1.15,2013-04-20 01:00:00,
2013-04-19 20:05:00,48.7,43.1,30.02,North,360,0.0,9.0,81,0.00,,,0.37,Wunderground v.1.15,2013-04-20 01:05:00,
2013-04-19 20:10:00,48.3,43.1,30.02,North,360,0.0,9.0,82,0.00,,,0.37,Wunderground v.1.15,2013-04-20 01:10:00,
2013-04-19 20:15:00,48.0,43.1,30.02,North,360,0.0,9.0,83,0.00,,,0.37,Wunderground v.1.15,2013-04-20 01:15:00,
2013-04-19 20:20:00,47.7,43.1,30.02,North,360,0.0,9.0,84,0.00,,,0.37,Wunderground v.1.15,2013-04-20 01:20:00,
2013-04-19 20:30:00,47.1,42.8,30.03,North,360,0.0,9.0,85,0.00,,,0.37,Wunderground v.1.15,2013-04-20 01:30:00,
2013-04-19 20:35:00,46.8,42.5,30.03,North,360,0.0,9.0,85,0.00,,,0.37,Wunderground v.1.15,2013-04-20 01:35:00,
2013-04-19 20:40:00,46.6,42.0,30.04,North,360,0.0,9.0,84,0.00,,,0.37,Wunderground v.1.15,2013-04-20 01:40:00,
2013-04-19 20:45:00,46.6,41.7,30.04,North,360,0.0,9.0,83,0.00,,,0.37,Wunderground v.1.15,2013-04-20 01:45:00,
2013-04-19 20:50:00,46.7,41.8,30.04,NNW,328,0.0,9.0,83,0.00,,,0.37,Wunderground v.1.15,2013-04-20 01:50:00,
2013-04-19 21:00:00,46.9,41.7,30.05,NNW,329,0.0,9.0,82,0.00,,,0.37,Wunderground v.1.15,2013-04-20 02:00:00,
2013-04-19 21:05:00,46.9,41.7,30.05,NNW,331,0.0,9.0,82,0.00,,,0.37,Wunderground v.1.15,2013-04-20 02:05:00,
2013-04-19 21:10:00,46.8,41.6,30.05,NNW,330,0.0,9.0,82,0.00,,,0.37,Wunderground v.1.15,2013-04-20 02:10:00,
2013-04-19 21:15:00,46.7,41.8,30.05,NNW,331,0.0,9.0,83,0.00,,,0.37,Wunderground v.1.15,2013-04-20 02:15:00,
2013-04-19 21:20:00,46.4,41.5,30.05,NNW,331,0.0,9.0,83,0.00,,,0.37,Wunderground v.1.15,2013-04-20 02:20:00,
2013-04-19 21:25:00,46.2,41.6,30.06,NNW,330,0.0,9.0,84,0.00,,,0.37,Wunderground v.1.15,2013-04-20 02:25:00,
2013-04-19 21:30:00,45.9,41.3,30.06,NNW,330,0.0,9.0,84,0.00,,,0.37,Wunderground v.1.15,2013-04-20 02:30:00,
2013-04-19 21:35:00,45.6,41.4,30.06,NNW,331,0.0,9.0,85,0.00,,,0.37,Wunderground v.1.15,2013-04-20 02:35:00,
2013-04-19 21:40:00,45.4,41.2,30.06,NNW,331,0.0,9.0,85,0.00,,,0.37,Wunderground v.1.15,2013-04-20 02:40:00,
2013-04-19 21:45:00,45.1,40.9,30.06,NNW,331,0.0,9.0,85,0.00,,,0.37,Wunderground v.1.15,2013-04-20 02:45:00,
2013-04-19 21:50:00,44.9,41.0,30.06,NNW,331,0.0,9.0,86,0.00,,,0.37,Wunderground v.1.15,2013-04-20 02:50:00,
2013-04-19 21:55:00,44.6,41.0,30.06,NNW,330,0.0,9.0,87,0.00,,,0.37,Wunderground v.1.15,2013-04-20 02:55:00,
2013-04-19 22:00:00,44.3,40.7,30.06,NNW,331,0.0,9.0,87,0.00,,,0.37,Wunderground v.1.15,2013-04-20 03:00:00,
2013-04-19 22:05:00,44.1,40.8,30.06,NNW,331,0.0,9.0,88,0.00,,,0.37,Wunderground v.1.15,2013-04-20 03:05:00,
2013-04-19 22:10:00,43.9,41.7,30.06,NNW,330,0.0,9.0,92,0.00,,,0.37,Wunderground v.1.15,2013-04-20 03:10:00,
2013-04-19 22:15:00,43.7,40.4,30.06,NNW,331,0.0,9.0,88,0.00,,,0.37,Wunderground v.1.15,2013-04-20 03:15:00,
2013-04-19 22:20:00,43.5,40.2,30.06,NNW,331,0.0,9.0,88,0.00,,,0.37,Wunderground v.1.15,2013-04-20 03:20:00,
2013-04-19 22:25:00,43.3,40.3,30.07,NNW,330,0.0,9.0,89,0.00,,,0.37,Wunderground v.1.15,2013-04-20 03:25:00,
2013-04-19 22:30:00,43.1,40.1,30.07,NNW,330,0.0,9.0,89,0.00,,,0.37,Wunderground v.1.15,2013-04-20 03:30:00,
2013-04-19 22:40:00,42.9,40.2,30.08,NNW,331,0.0,9.0,90,0.00,,,0.37,Wunderground v.1.15,2013-04-20 03:40:00,
2013-04-19 22:45:00,42.7,40.0,30.08,NNW,331,0.0,9.0,90,0.00,,,0.37,Wunderground v.1.15,2013-04-20 03:45:00,
2013-04-19 22:50:00,42.6,39.9,30.08,NNW,331,0.0,9.0,90,0.00,,,0.37,Wunderground v.1.15,2013-04-20 03:50:00,
2013-04-19 22:55:00,42.5,39.8,30.07,NNW,330,0.0,9.0,90,0.00,,,0.37,Wunderground v.1.15,2013-04-20 03:55:00,
2013-04-19 23:00:00,42.4,40.0,30.07,NNW,331,0.0,9.0,91,0.00,,,0.37,Wunderground v.1.15,2013-04-20 04:00:00,
2013-04-19 23:05:00,42.4,40.0,30.07,NNW,331,0.0,9.0,91,0.00,,,0.37,Wunderground v.1.15,2013-04-20 04:05:00,
2013-04-19 23:10:00,42.4,40.0,30.07,NNW,331,0.0,9.0,91,0.00,,,0.37,Wunderground v.1.15,2013-04-20 04:10:00,
2013-04-19 23:15:00,42.4,40.0,30.07,NNW,331,0.0,9.0,91,0.00,,,0.37,Wunderground v.1.15,2013-04-20 04:15:00,
2013-04-19 23:20:00,42.3,39.9,30.07,NNW,331,0.0,9.0,91,0.00,,,0.37,Wunderground v.1.15,2013-04-20 04:20:00,
2013-04-19 23:25:00,42.1,39.7,30.08,NNW,330,0.0,9.0,91,0.00,,,0.37,Wunderground v.1.15,2013-04-20 04:25:00,
2013-04-19 23:30:00,42.0,39.6,30.08,NNW,346,0.0,9.0,91,0.00,,,0.37,Wunderground v.1.15,2013-04-20 04:30:00,
2013-04-19 23:35:00,41.9,39.5,30.08,NNW,345,0.0,9.0,91,0.00,,,0.37,Wunderground v.1.15,2013-04-20 04:35:00,
2013-04-19 23:45:00,42.1,39.7,30.08,NNW,345,0.0,9.0,91,0.00,,,0.37,Wunderground v.1.15,2013-04-20 04:45:00,
2013-04-19 23:50:00,42.3,39.9,30.08,NNW,345,0.0,9.0,91,0.00,,,0.37,Wunderground v.1.15,2013-04-20 04:50:00,
2013-04-19 23:55:00,42.4,39.7,30.08,NNW,345,0.0,9.0,90,0.00,,,0.37,Wunderground v.1.15,2013-04-20 04:55:00,